{"data":{"norad_id":57479,"epoch":"2026-09-18T06:32:03.258816Z","epoch_age_seconds":210779,"freshness":"STALE","line1":"1 57479U 23108A   26261.27225994  .00000000  00000+0  00000+0 0  9991","line2":"2 57479   0.0225 159.7386 0001103  20.1603 180.1011  1.00270175 11589","mean_motion":1.00270175,"eccentricity":0.0001103,"inclination_deg":0.0225,"raan_deg":159.7386,"arg_perigee_deg":20.1603,"mean_anomaly_deg":180.1011,"bstar":0,"rev_number":1158,"period_min":1436.1199628903,"perigee_km":35782.395488956,"apogee_km":35791.697128393,"semimajor_km":42165.183308675,"source":"CELESTRAK","updated_at":"2026-09-20T09:00:35.334201Z"}}